EHI
10 10 11 9 5 4 5 5 3 2 1 0 0 0 0 2 4 3 2 2 3 2 1 0 0 0 0 0 0 0 0 0 0 0 0 0 0 0 0 0 0 0 0
19 17 14 11 8 8 9 8 5 3 1 0 0 1 1 3 4 4 2 3 4 3 2 1 0 0 0 0 0 0 0 0 0 0 0 0 0 0 0 0 0 0 0
31 25 18 13 14 16 15 11 6 2 1 1 1 1 3 4 5 4 4 5 5 3 3 2 1 0 0 0 0 0 0 0 0 0 0 0 0 0 0 0 0 0 0
37 30 22 19 22 22 17 12 6 2 1 1 1 2 4 7 6 3 4 7 7 5 4 4 3 2 0 0 0 0 0 0 0 0 0 0 0 0 0 0 0 0 0
37 32 28 28 28 25 19 15 11 7 3 2 1 1 3 8 8 5 4 6 9 9 6 5 5 3 1 0 0 0 0 0 0 0 0 0 0 0 0 0 0 0 0
37 32 32 34 32 28 24 20 17 13 8 4 2 1 3 6 8 7 6 6 6 7 7 8 7 3 1 1 0 0 1 2 1 1 1 1 0 0 0 0 0 0 0
38 33 33 36 35 32 30 24 21 17 10 5 2 2 2 3 4 7 10 8 6 6 10 13 12 8 4 1 1 2 4 4 3 3 2 2 1 1 1 0 0 0 0
40 36 36 37 36 35 33 28 23 17 12 7 5 3 1 0 0 4 9 8 7 9 13 16 20 21 14 7 3 4 6 6 5 4 4 4 3 2 2 1 0 0 0
39 38 39 39 37 34 33 30 22 17 15 12 9 5 1 0 0 2 4 5 7 11 11 12 21 27 23 15 9 6 6 7 7 6 5 5 4 3 2 1 0 0 0
35 38 43 45 40 34 29 24 20 19 18 15 12 6 2 1 1 1 0 2 7 10 8 6 11 21 24 21 17 10 6 5 6 6 6 5 4 2 1 0 0 0 0
31 37 46 51 47 39 31 25 24 25 20 14 11 9 5 3 3 2 1 1 4 7 7 5 6 13 21 21 17 11 6 3 3 3 4 4 3 2 0 0 0 0 0
29 32 40 49 50 45 39 34 32 29 22 15 12 11 8 5 4 3 1 0 1 3 7 9 8 10 15 16 11 7 4 2 1 1 2 3 4 2 1 0 0 0 0
27 29 34 42 46 44 41 40 37 31 22 17 13 12 11 7 4 2 1 0 0 1 5 9 10 10 10 11 7 3 2 1 0 0 1 2 3 2 1 0 0 0 0
22 27 35 40 40 36 34 37 36 29 23 17 13 13 13 8 3 2 2 2 2 1 3 6 10 12 13 13 7 2 1 0 0 0 0 1 1 1 0 0 0 0 0
18 23 30 36 38 34 32 33 33 28 23 19 16 16 16 11 5 3 5 6 4 2 2 4 8 14 17 14 6 2 3 1 0 0 0 0 0 0 0 0 0 0 0
18 19 22 27 32 33 32 31 29 26 23 21 19 18 16 13 9 8 9 9 7 4 3 3 6 12 16 10 4 4 5 2 0 0 0 0 0 0 0 0 0 0 0
17 17 19 21 23 26 26 26 24 22 21 20 19 17 15 14 13 12 11 10 8 6 4 3 5 12 16 12 8 8 6 2 1 0 0 0 0 0 0 0 0 0 0
15 16 17 17 18 19 20 21 20 18 17 18 17 15 14 13 14 13 11 9 9 7 5 3 6 12 18 17 15 11 6 2 1 0 0 0 0 0 0 0 0 0 0
14 15 15 15 16 18 19 19 18 17 17 17 15 13 11 12 13 11 8 7 7 6 5 4 5 8 12 15 16 12 5 3 2 0 0 0 0 0 0 0 0 0 0
15 15 14 14 15 16 16 15 15 16 15 13 11 9 8 10 10 8 6 5 5 4 4 4 3 3 4 7 11 9 5 3 2 1 0 0 0 0 0 0 0 0 0
15 15 14 13 13 11 9 9 10 12 12 10 8 7 7 6 5 4 3 3 4 3 3 2 1 1 1 3 5 5 3 2 2 1 0 0 0 0 0 0 0 0 0
15 14 12 11 9 6 3 2 4 7 9 8 7 6 4 3 1 1 1 1 2 2 2 1 0 0 1 2 3 2 1 1 1 1 1 0 0 0 0 0 0 0 0
17 15 11 9 6 3 1 0 1 4 6 5 4 4 2 1 0 0 0 0 1 1 1 0 0 0 1 2 2 1 1 1 1 1 1 0 0 0 0 0 0 0 0
18 15 11 8 4 1 0 0 0 1 2 2 1 2 2 1 0 0 0 0 0 0 0 0 0 0 0 1 1 1 1 2 2 2 1 0 0 0 0 0 0 0 0
14 12 9 6 3 1 0 0 0 0 0 0 0 1 1 1 0 0 0 0 0 1 0 0 0 0 0 0 0 0 1 2 1 1 0 0 0 0 0 0 0 0 0
12 11 8 4 2 0 0 0 0 1 1 1 0 0 1 0 0 0 0 0 0 1 0 0 0 0 0 0 0 0 1 1 0 0 0 0 0 0 0 0 0 0 0
Wind_Speed
4 4 3 3 4 4 4 3 3 3 2 2 1 1 1 3 6 7 6 12 12 11 11 10 9 9 9 8 8 8 8 7 7 7 6 6 6 6 6 6 6 6 5
4 4 4 3 3 3 3 3 3 3 2 2 1 1 1 3 4 7 7 8 12 11 10 11 10 10 9 9 9 8 8 8 7 7 7 6 6 6 6 6 6 6 5
5 4 4 3 3 3 3 2 2 2 3 3 2 2 1 2 4 5 7 6 7 10 11 10 10 10 10 10 10 9 8 8 8 8 7 7 7 7 6 6 6 6 6
5 4 4 4 3 3 3 2 2 2 2 2 2 2 2 2 3 4 6 7 6 7 10 12 11 11 11 11 11 10 9 9 8 8 8 8 8 8 7 7 7 6 6
6 4 3 3 4 3 3 4 3 2 2 1 2 3 2 3 3 5 5 7 7 7 7 10 12 12 12 12 12 11 11 11 10 10 10 9 9 9 8 8 8 7 7
6 5 4 4 4 3 3 2 2 2 1 2 3 2 2 3 3 4 5 5 6 9 9 9 8 9 13 12 12 12 12 12 11 11 11 10 10 10 9 9 9 8 8
7 5 4 5 4 3 4 4 3 3 2 2 1 1 2 3 4 3 3 3 4 5 7 9 8 6 7 13 12 12 12 13 12 12 11 11 11 10 10 10 10 10 9
7 7 4 5 5 3 3 3 3 2 3 3 2 1 1 1 2 4 3 4 5 4 6 9 8 7 6 6 9 14 13 13 13 13 12 11 11 10 10 11 10 10 10
7 6 6 5 5 5 4 4 4 4 3 2 3 2 2 2 1 2 4 4 4 3 4 5 7 8 8 7 7 13 15 13 13 14 13 12 11 11 10 11 11 11 11
7 7 6 6 5 4 5 6 6 4 4 3 2 2 2 1 1 1 2 2 4 4 4 5 6 7 7 5 7 12 16 15 14 14 13 12 12 11 11 11 12 11 11
7 7 7 6 6 5 5 5 4 4 4 4 3 2 2 2 3 2 2 1 2 3 4 4 4 5 6 6 6 10 16 16 14 13 12 12 12 12 12 12 13 12 12
6 7 7 6 6 5 5 5 5 5 4 4 3 2 2 2 3 2 2 2 3 3 4 4 4 4 5 6 9 13 16 15 14 13 12 11 11 11 11 12 13 13 13
6 7 8 6 6 5 5 5 5 5 5 5 4 3 2 2 2 2 2 2 2 2 2 3 4 4 5 4 5 13 15 15 14 13 13 12 11 11 11 11 12 12 12
5 7 7 7 6 6 7 6 5 5 5 5 6 5 2 3 2 2 2 2 2 2 2 3 2 3 3 3 6 12 9 15 14 14 13 12 12 11 11 10 10 11 11
6 6 7 7 7 6 6 5 4 5 4 5 4 5 4 3 3 2 1 1 1 2 3 3 2 3 3 3 8 6 6 12 14 14 13 13 12 11 11 11 11 11 11
5 5 6 7 6 6 6 5 4 4 4 4 3 3 3 3 3 2 1 1 1 2 2 2 2 1 1 2 7 5 4 12 14 14 14 13 12 12 11 11 11 11 11
3 4 5 5 5 5 5 5 4 5 5 4 4 4 4 3 2 2 2 2 1 1 2 3 2 1 1 0 2 3 3 5 7 13 14 14 13 12 12 12 12 11 11
3 3 3 4 4 5 5 5 5 5 5 4 4 3 3 3 3 3 2 2 1 1 2 2 2 1 1 2 2 3 3 4 3 9 13 14 13 13 12 12 11 11 10
3 3 3 4 4 4 4 4 4 4 4 4 3 3 3 3 3 3 2 2 1 2 1 1 2 2 1 1 1 2 3 2 4 4 9 11 12 12 12 12 11 10 10
3 3 3 3 3 2 3 3 3 3 3 3 2 2 2 2 3 3 2 2 2 2 2 2 2 2 1 1 0 1 2 2 3 4 2 4 7 10 11 10 10 10 10
2 2 3 3 2 2 2 3 3 3 3 2 1 1 1 1 1 0 1 1 1 1 1 2 2 2 1 1 1 1 2 2 2 2 1 1 2 3 4 7 9 10 10
3 3 3 3 2 1 2 3 3 3 3 2 1 1 1 1 2 2 2 2 1 0 1 2 2 2 2 2 2 2 2 2 3 2 2 3 2 2 3 2 5 8 10
4 4 3 4 4 5 6 6 5 3 3 3 2 1 1 2 3 1 1 1 1 1 0 1 2 2 2 2 2 2 3 3 3 3 2 3 2 2 2 2 4 5 7
5 4 4 4 5 5 6 6 5 3 3 4 4 3 3 4 4 4 2 1 1 1 0 1 0 1 1 1 1 2 3 4 4 3 2 2 2 2 3 2 4 6 7
5 5 5 6 6 6 6 5 4 3 5 5 5 6 6 5 7 6 3 2 2 2 2 2 1 1 1 2 2 2 3 3 4 3 2 2 3 3 3 3 3 4 5
6 6 7 7 8 7 7 7 5 3 4 4 5 7 9 8 8 7 4 3 3 3 3 2 1 2 2 1 1 1 3 3 3 3 3 3 3 3 3 2 3 2 3
Wind_Direction
157 146 152 163 178 167 172 185 189 152 146 161 191 160 96 95 115 125 140 156 156 160 165 168 170 171 170 172 171 172 171 171 171 170 170 169 168 168 169 167 169 169 170
148 140 155 173 180 167 168 170 169 152 178 172 190 153 123 118 117 135 147 160 166 169 176 179 180 182 181 182 181 182 182 181 179 178 182 181 180 180 181 181 182 182 184
148 155 160 181 183 155 150 162 169 172 186 181 181 164 140 127 136 144 150 158 168 179 184 187 187 189 190 190 190 190 191 190 189 189 191 192 192 191 192 196 195 195 196
159 171 172 183 169 155 163 160 193 197 193 179 168 178 158 155 167 169 163 169 171 177 189 194 193 194 196 198 198 197 199 200 199 199 200 202 203 202 203 207 208 206 205
173 186 190 165 170 165 178 191 184 191 179 182 189 178 192 194 183 198 182 179 175 168 175 190 195 196 200 203 206 205 205 205 206 208 209 211 212 211 211 214 216 216 216
183 193 185 176 192 173 176 175 154 165 168 199 239 187 204 200 197 195 196 190 176 178 179 175 185 202 206 207 208 211 211 209 209 211 214 215 217 216 215 217 219 220 222
185 198 198 170 194 185 180 173 169 183 212 203 201 217 227 223 208 194 196 189 191 186 170 167 183 188 197 210 211 212 213 213 212 213 215 217 220 218 217 218 219 221 225
187 196 201 181 186 185 186 182 165 179 227 205 193 193 253 280 247 209 186 197 200 186 180 181 187 181 187 183 205 210 213 215 215 215 216 218 220 220 220 220 221 223 227
195 203 184 199 187 191 186 189 181 192 220 224 212 183 187 211 221 244 214 206 187 187 195 185 187 185 191 182 189 205 210 212 215 219 218 217 217 219 221 223 224 226 229
201 199 192 194 200 204 180 192 192 198 204 228 230 224 218 156 167 226 251 210 193 197 208 209 202 189 192 183 184 188 200 206 212 218 220 218 217 218 221 225 227 229 231
209 203 197 193 198 207 199 204 181 192 198 218 218 207 219 198 212 207 230 230 223 209 202 207 208 191 190 189 184 186 192 200 206 213 217 219 220 221 223 226 230 232 234
208 211 202 196 200 207 202 196 189 199 213 229 234 225 200 199 212 221 220 218 221 227 206 200 200 191 189 190 200 189 187 194 200 207 212 217 221 224 227 230 233 235 238
204 204 204 194 202 205 200 199 195 204 207 218 223 233 231 232 224 225 224 231 231 229 207 204 197 193 203 183 182 178 184 189 196 203 208 213 218 223 227 230 234 238 240
210 198 195 192 199 201 205 196 197 201 206 212 224 225 238 252 252 242 225 226 258 263 233 230 202 193 196 170 167 172 183 193 198 203 208 213 217 222 226 230 234 237 239
215 202 194 194 197 200 207 191 199 202 196 201 222 224 224 248 260 269 266 222 218 253 268 255 223 205 180 159 161 186 183 195 202 206 210 215 218 222 226 231 234 236 237
222 199 198 195 193 195 199 196 195 202 194 196 209 224 220 240 259 264 260 247 221 226 258 267 249 232 199 184 170 199 206 190 201 207 211 215 219 222 225 229 233 235 236
209 202 198 192 189 186 191 191 196 194 193 195 205 210 212 229 267 280 261 247 236 215 253 276 270 255 211 193 166 227 217 193 203 208 210 213 216 220 224 227 230 233 236
190 190 191 188 189 188 188 185 193 191 187 190 200 201 206 214 227 259 277 263 243 226 229 264 301 294 242 209 202 233 249 234 215 208 210 213 216 220 223 227 229 232 234
171 183 185 186 185 184 184 184 187 185 181 187 193 195 205 221 233 238 246 276 291 280 232 234 257 265 259 248 230 247 259 269 262 232 210 212 219 223 226 229 231 230 230
168 179 178 173 166 165 169 175 178 177 172 176 185 192 199 219 229 238 237 255 273 290 296 285 275 274 272 279 261 277 286 290 283 281 262 213 217 224 229 230 229 227 228
144 133 129 129 134 151 170 170 166 163 153 149 153 165 162 157 134 195 246 254 272 285 300 293 287 304 315 344 344 311 292 299 299 302 325 284 231 229 226 230 230 227 226
97 98 101 99 97 99 93 119 129 124 118 123 126 132 117 94 113 133 129 98 87 168 294 307 307 309 321 346 346 329 330 326 308 318 327 297 270 247 242 221 214 217 222
98 89 89 95 88 65 62 81 86 90 94 97 93 82 16 30 44 6 169 156 108 102 185 280 320 321 337 352 342 328 319 309 285 286 288 280 287 282 275 254 213 220 224
87 86 82 86 84 67 64 70 76 96 86 79 70 69 70 51 22 7 5 48 64 36 245 207 47 330 343 344 333 313 300 298 289 295 311 289 307 310 315 289 253 234 231
87 80 74 74 77 63 50 64 76 98 91 79 71 62 64 60 30 25 35 42 41 42 69 86 136 239 294 318 333 336 332 323 314 319 351 331 324 322 317 314 309 275 262
86 81 72 67 71 69 54 59 70 87 94 88 79 70 60 54 37 27 31 36 31 4 356 344 294 274 275 304 315 338 351 343 333 328 0 353 337 337 316 314 327 303 278